GW6191 Weather Reports


Display with metric or nautical units.
time (UTC)temp
F
wind
direction
speed
MPH
gust
MPH
rain 1hr
in
rain 24hr
in
rain mn
in
humidity
%
barometer
mb
20260506143516 52 321 5.0 11.0 0.00 0.00 0.00 86 1015.2
20260506143040 52 347 5.0 10.0 0.00 0.00 0.00 86 1015.2
20260506142509 52 10 4.0 9.0 0.00 0.00 0.00 86 1014.3
20260506142006 52 342 4.0 9.0 0.00 0.00 0.00 85 1014.5
20260506141518 52 352 5.0 9.0 0.00 0.00 0.00 84 1014.9
20260506141007 52 50 5.0 10.0 0.00 0.00 0.00 83 1015.5
20260506140508 52 342 5.0 10.0 0.00 0.00 0.00 83 1015.6
20260506140020 52 347 6.0 14.0 0.00 0.00 0.00 83 1015.3
20260506135509 52 342 6.0 14.0 0.00 0.00 0.00 83 1015.3
20260506135008 52 335 5.0 12.0 0.00 0.00 0.00 82 1015.3
20260506134519 52 337 6.0 10.0 0.00 0.00 0.00 82 1015.4
20260506134008 52 341 5.0 10.0 0.00 0.00 0.00 83 1014.8
20260506133511 52 45 3.0 10.0 0.00 0.00 0.00 83 1014.5
20260506133028 52 343 4.0 10.0 0.00 0.00 0.00 83 1014.4
20260506132513 52 347 5.0 10.0 0.00 0.00 0.00 83 1014.2
20260506132014 52 5 4.0 11.0 0.00 0.00 0.00 83 1014.2
20260506131530 52 330 5.0 11.0 0.00 0.00 0.00 83 1014.3
20260506131008 51 31 4.0 13.0 0.00 0.00 0.00 83 1014.3
20260506130509 51 58 7.0 13.0 0.00 0.00 0.00 83 1014.3
20260506130008 51 5 6.0 12.0 0.00 0.00 0.00 83 1013.9
20260506125505 51 31 6.0 12.0 0.00 0.00 0.00 83 1014.0
20260506125003 51 5 6.0 12.0 0.00 0.00 0.00 83 1013.9
20260506124503 52 350 4.0 11.0 0.00 0.00 0.00 83 1013.8
20260506124004 51 22 5.0 14.0 0.00 0.00 0.00 82 1013.6
20260506123505 51 342 6.0 13.0 0.00 0.00 0.00 82 1013.9
20260506123009 52 9 5.0 12.0 0.00 0.00 0.00 82 1013.9
20260506122504 52 44 7.0 11.0 0.00 0.00 0.00 82 1013.7
20260506122012 52 352 5.0 14.0 0.00 0.00 0.00 82 1013.8
20260506121514 52 352 7.0 14.0 0.00 0.00 0.00 81 1013.6
20260506121003 52 360 7.0 15.0 0.00 0.00 0.00 81 1013.5
20260506120510 52 11 6.0 15.0 0.00 0.00 0.00 81 1013.6
20260506120022 52 345 6.0 14.0 0.00 0.00 0.00 81 1013.8
20260506115508 52 19 5.0 11.0 0.00 0.00 0.00 81 1013.5
20260506115004 52 346 7.0 14.0 0.00 0.00 0.00 80 1013.6
20260506114519 53 348 7.0 14.0 0.00 0.00 0.00 79 1013.5
20260506114005 53 5 6.0 15.0 0.00 0.00 0.00 78 1013.4
20260506113504 53 348 9.0 15.0 0.00 0.00 0.00 77 1013.1
20260506113008 54 17 5.0 11.0 0.00 0.00 0.00 76 1013.1
20260506112506 54 15 3.0 13.0 0.00 0.00 0.00 76 1012.9
20260506112006 54 344 6.0 15.0 0.00 0.00 0.00 76 1012.9
20260506111509 54 40 8.0 13.0 0.00 0.00 0.00 75 1012.7
20260506111005 54 352 5.0 12.0 0.00 0.00 0.00 75 1012.5
20260506110511 54 352 5.0 13.0 0.00 0.00 0.00 75 1012.3
20260506110007 54 34 6.0 13.0 0.00 0.00 0.00 75 1012.4
20260506105506 54 326 5.0 15.0 0.00 0.00 0.00 75 1012.3
20260506105013 54 334 6.0 15.0 0.00 0.00 0.00 75 1012.3
20260506104520 55 352 9.0 15.0 0.00 0.00 0.00 75 1012.2
20260506104003 55 338 3.0 12.0 0.00 0.00 0.00 75 1012.2
20260506103506 55 5 5.0 12.0 0.00 0.00 0.00 75 1012.2
20260506103020 55 17 6.0 14.0 0.00 0.00 0.00 75 1012.1
20260506102503 55 19 5.0 15.0 0.00 0.00 0.00 75 1011.9
20260506102006 55 27 6.0 15.0 0.00 0.00 0.00 75 1011.9
20260506101506 55 360 8.0 14.0 0.00 0.00 0.00 75 1011.7
20260506101008 55 325 8.0 14.0 0.00 0.00 0.00 75 1011.6
20260506100502 55 340 7.0 14.0 0.00 0.00 0.00 75 1011.4
20260506100016 56 14 6.0 13.0 0.00 0.00 0.00 75 1011.5
20260506095506 56 5 5.0 10.0 0.00 0.00 0.00 75 1011.4
20260506095006 56 344 4.0 10.0 0.00 0.00 0.00 76 1011.3
20260506094516 56 50 3.0 10.0 0.00 0.00 0.00 76 1011.3
20260506094006 56 17 3.0 8.0 0.00 0.00 0.00 75 1011.3
20260506093514 56 352 3.0 13.0 0.00 0.00 0.00 76 1011.3
20260506093008 56 344 5.0 13.0 0.00 0.00 0.00 76 1011.4
20260506092507 56 30 6.0 11.0 0.00 0.00 0.00 76 1011.2
20260506092019 56 344 5.0 12.0 0.00 0.00 0.00 76 1011.1
20260506091528 56 338 7.0 12.0 0.00 0.00 0.00 76 1011.1
20260506091004 56 352 7.0 11.0 0.00 0.00 0.00 77 1011.1
20260506090504 56 19 6.0 11.0 0.00 0.00 0.00 76 1011.0
20260506090010 56 343 4.0 8.0 0.00 0.00 0.00 76 1011.2
20260506085502 56 352 3.0 7.0 0.00 0.00 0.00 76 1011.1
20260506085009 56 360 3.0 9.0 0.00 0.00 0.00 76 1011.0
20260506084519 56 26 5.0 13.0 0.00 0.00 0.00 76 1010.9
20260506084009 56 40 4.0 13.0 0.00 0.00 0.00 77 1010.8
20260506083504 56 346 6.0 12.0 0.00 0.00 0.00 77 1010.7
20260506083020 56 336 5.0 12.0 0.00 0.00 0.00 77 1010.7
20260506082508 56 346 7.0 12.0 0.00 0.00 0.00 77 1010.6
20260506082018 56 348 4.0 12.0 0.00 0.00 0.00 77 1010.7
20260506081515 56 331 7.0 12.0 0.00 0.00 0.00 77 1010.8
20260506081009 57 9 3.0 12.0 0.00 0.00 0.00 77 1010.7
20260506080516 57 344 7.0 12.0 0.00 0.00 0.00 77 1010.7
20260506073509 57 331 4.0 8.0 0.00 0.00 0.00 78 1010.8
20260506073022 57 336 4.0 8.0 0.00 0.00 0.00 78 1010.6
20260506072515 57 26 3.0 8.0 0.00 0.00 0.00 77 1010.3
20260506072008 57 11 3.0 7.0 0.00 0.00 0.00 77 1010.3
20260506071521 57 360 3.0 7.0 0.00 0.00 0.00 78 1010.2
20260506071010 57 344 4.0 8.0 0.00 0.00 0.00 77 1010.1
20260506070505 57 39 4.0 9.0 0.00 0.00 0.00 78 1010.1
20260506062511 58 341 5.0 11.0 0.00 0.00 0.00 78 1010.4
20260506062009 58 360 4.0 11.0 0.00 0.00 0.00 78 1010.4
20260506061522 58 342 5.0 10.0 0.00 0.00 0.00 78 1010.3
20260506061008 58 40 4.0 11.0 0.00 0.00 0.00 78 1010.2
20260506060511 58 342 5.0 11.0 0.00 0.00 0.00 78 1010.3
20260506051009 60 5 5.0 14.0 0.00 0.00 0.00 79 1010.5
20260506050514 60 348 7.0 12.0 0.00 0.00 0.00 78 1010.4
20260506045011 60 334 8.0 13.0 0.00 0.00 0.00 79 1010.4
20260506044528 60 338 5.0 11.0 0.00 0.00 0.00 78 1010.2
20260506044015 60 5 6.0 13.0 0.00 0.00 0.00 78 1010.2
20260506043513 61 36 4.0 13.0 0.00 0.00 0.00 78 1010.1
20260506043030 61 352 5.0 11.0 0.00 0.00 0.00 78 1010.1
20260506042505 61 15 6.0 12.0 0.00 0.00 0.00 78 1010.2
20260506042005 61 337 4.0 13.0 0.00 0.00 0.00 78 1010.2
20260506041517 61 337 5.0 13.0 0.00 0.00 0.00 77 1010.3
20260506041007 61 41 4.0 14.0 0.00 0.00 0.00 78 1010.3
20260506040505 61 345 7.0 14.0 0.00 0.00 0.00 77 1010.3
20260506040003 62 360 8.0 14.0 0.00 0.00 0.00 77 1010.2
20260506035503 62 349 7.0 13.0 0.00 0.00 0.00 77 1010.3
20260506035003 62 330 7.0 13.0 0.00 0.00 0.00 77 1010.1
20260506034504 62 30 5.0 15.0 0.00 0.00 0.00 77 1009.9
20260506034004 62 335 8.0 15.0 0.00 0.00 0.00 77 1009.9
20260506033504 63 360 4.0 11.0 0.00 0.00 0.00 77 1009.8
20260506033008 63 20 4.0 10.0 0.00 0.00 0.00 76 1009.7
20260506032503 63 323 5.0 13.0 0.00 0.00 0.00 77 1009.5
20260506032007 63 360 6.0 15.0 0.00 0.00 0.00 76 1009.3
20260506031523 63 38 7.0 15.0 0.00 0.00 0.00 75 1009.3
20260506031003 63 11 7.0 15.0 0.00 0.00 0.00 75 1009.4
20260506030504 64 348 7.0 15.0 0.00 0.00 0.00 75 1009.1
20260506030022 65 9 8.0 15.0 0.00 0.00 0.00 75 1009.2
20260506025508 65 346 5.0 12.0 0.00 0.00 0.00 75 1009.0
20260506025006 65 35 5.0 11.0 0.00 0.00 0.00 74 1009.0
20260506024505 65 18 4.0 11.0 0.00 0.00 0.00 74 1008.9
20260506024004 65 321 4.0 12.0 0.00 0.00 0.00 74 1008.7
20260506023505 65 31 5.0 12.0 0.00 0.00 0.00 74 1008.6
20260506023009 65 352 7.0 12.0 0.00 0.00 0.00 74 1008.6
20260506022505 66 352 4.0 12.0 0.00 0.00 0.00 73 1008.5
20260506022006 66 352 6.0 12.0 0.00 0.00 0.00 73 1008.5
20260506021507 66 27 8.0 12.0 0.00 0.00 0.00 73 1008.3
20260506021008 66 9 6.0 11.0 0.00 0.00 0.00 72 1008.2
20260506020510 66 339 5.0 11.0 0.00 0.00 0.00 72 1008.1
20260506020021 66 336 5.0 13.0 0.00 0.00 0.00 72 1007.8
20260506015504 66 352 7.0 13.0 0.00 0.00 0.00 72 1007.9
20260506015005 67 24 3.0 10.0 0.00 0.00 0.00 72 1007.9
20260506014525 67 337 4.0 10.0 0.00 0.00 0.00 72 1007.6
20260506014003 67 336 5.0 10.0 0.00 0.00 0.00 71 1007.4
20260506013503 67 352 5.0 10.0 0.00 0.00 0.00 70 1007.3
20260506013007 67 352 6.0 11.0 0.00 0.00 0.00 70 1007.4
20260506012506 67 31 4.0 11.0 0.00 0.00 0.00 71 1007.4
20260506012008 68 342 5.0 10.0 0.00 0.00 0.00 71 1007.2
20260506011511 68 32 4.0 8.0 0.00 0.00 0.00 71 1007.0
20260506011007 69 24 3.0 10.0 0.00 0.00 0.00 71 1007.1
20260506010502 69 346 4.0 10.0 0.00 0.00 0.00 70 1006.8
20260506010015 69 17 5.0 14.0 0.00 0.00 0.00 70 1006.7
20260506005506 70 325 6.0 15.0 0.00 0.00 0.00 70 1006.4
20260506005015 70 348 6.0 15.0 0.00 0.00 0.00 70 1006.3
20260506004513 70 46 7.0 13.0 0.00 0.00 0.00 70 1006.6
20260506004006 70 343 5.0 11.0 0.00 0.00 0.00 71 1006.6
20260506003513 71 360 5.0 15.0 0.00 0.00 0.00 70 1006.2
20260506003004 71 11 6.0 15.0 0.00 0.00 0.00 69 1005.8
20260506002502 71 344 10.0 15.0 0.00 0.00 0.00 69 1005.8
20260506002007 71 350 11.0 15.0 0.00 0.00 0.00 68 1005.9
20260506001506 72 350 8.0 15.0 0.00 0.00 0.00 68 1006.0
20260506001004 72 319 9.0 15.0 0.00 0.00 0.00 68 1006.0
20260506000507 73 328 7.0 14.0 0.00 0.00 0.00 68 1006.0
20260506000018 73 9 7.0 15.0 0.00 0.00 0.00 68 1005.9
20260505235514 73 337 9.0 15.0 0.00 0.00 0.00 66 1005.9
20260505235004 74 316 8.0 14.0 0.00 0.00 0.00 66 1005.9
20260505234519 74 360 7.0 13.0 0.00 0.00 0.00 66 1005.8
20260505234009 75 340 8.0 13.0 0.00 0.00 0.00 66 1005.9
20260505233506 75 343 6.0 14.0 0.00 0.00 0.00 65 1005.8
20260505233015 75 325 7.0 14.0 0.00 0.00 0.00 65 1005.7
20260505232506 75 331 8.0 13.0 0.00 0.00 0.00 64 1005.7
20260505232012 75 332 9.0 13.0 0.00 0.00 0.00 64 1005.5
20260505231507 76 326 9.0 14.0 0.00 0.00 0.00 65 1005.8
20260505231004 76 326 10.0 16.0 0.00 0.00 0.00 65 1005.7
20260505230509 76 331 11.0 16.0 0.00 0.00 0.00 63 1005.5
20260505230009 77 352 10.0 16.0 0.00 0.00 0.00 63 1005.4
20260505225507 77 319 11.0 16.0 0.00 0.00 0.00 63 1005.4
20260505225006 77 327 9.0 15.0 0.00 0.00 0.00 64 1005.5
20260505224531 78 317 9.0 13.0 0.00 0.00 0.00 63 1005.4
20260505224012 78 321 9.0 14.0 0.00 0.00 0.00 64 1005.1
20260505223514 78 308 7.0 14.0 0.00 0.00 0.00 63 1004.9
20260505223031 78 325 9.0 13.0 0.00 0.00 0.00 65 1004.9
20260505222502 78 316 10.0 16.0 0.00 0.00 0.00 63 1005.1
20260505222010 79 319 12.0 16.0 0.00 0.00 0.00 62 1005.1
20260505221522 80 316 10.0 16.0 0.00 0.00 0.00 61 1004.9
20260505221009 81 346 10.0 17.0 0.00 0.00 0.00 61 1004.8
20260505220505 82 327 11.0 17.0 0.00 0.00 0.00 60 1004.9
20260505220020 83 351 9.0 14.0 0.00 0.00 0.00 57 1004.8
20260505215510 84 331 10.0 13.0 0.00 0.00 0.00 56 1004.7
20260505215009 83 331 8.0 13.0 0.00 0.00 0.00 54 1004.6
20260505214519 84 314 10.0 14.0 0.00 0.00 0.00 52 1004.6
20260505214008 83 319 10.0 14.0 0.00 0.00 0.00 50 1004.8
20260505213507 85 320 10.0 14.0 0.00 0.00 0.00 49 1005.0
20260505213011 85 317 10.0 14.0 0.00 0.00 0.00 48 1004.9
20260505212507 85 9 9.0 13.0 0.00 0.00 0.00 50 1004.7
20260505212012 84 334 10.0 15.0 0.00 0.00 0.00 49 1004.6
20260505211525 85 339 10.0 15.0 0.00 0.00 0.00 49 1004.7
20260505211009 85 344 10.0 14.0 0.00 0.00 0.00 51 1004.8
20260505210510 86 329 10.0 15.0 0.00 0.00 0.00 53 1004.9
20260505210030 86 333 10.0 19.0 0.00 0.00 0.00 51 1005.0
20260505205507 87 327 12.0 19.0 0.00 0.00 0.00 47 1004.9
20260505205008 88 322 6.0 14.0 0.00 0.00 0.00 53 1004.9
20260505204520 88 254 8.0 13.0 0.00 0.00 0.00 53 1004.8
20260505204006 88 214 7.0 11.0 0.00 0.00 0.00 57 1004.9
20260505203507 88 218 6.0 11.0 0.00 0.00 0.00 54 1004.8
20260505203017 88 213 7.0 13.0 0.00 0.00 0.00 52 1004.9
20260505202508 88 235 8.0 13.0 0.00 0.00 0.00 55 1005.0
20260505202009 88 223 5.0 13.0 0.00 0.00 0.00 57 1004.9
20260505201518 87 207 6.0 13.0 0.00 0.00 0.00 57 1004.9
20260505201009 87 271 7.0 14.0 0.00 0.00 0.00 54 1005.1
20260505200512 87 212 7.0 18.0 0.00 0.00 0.00 54 1005.1
20260505200014 87 261 8.0 18.0 0.00 0.00 0.00 55 1005.1
20260505195511 87 254 10.0 15.0 0.00 0.00 0.00 56 1005.2
20260505195012 87 254 9.0 15.0 0.00 0.00 0.00 55 1005.2
20260505194512 87 236 7.0 16.0 0.00 0.00 0.00 58 1005.3
20260505194005 86 240 9.0 17.0 0.00 0.00 0.00 58 1005.3
20260505193507 86 257 8.0 17.0 0.00 0.00 0.00 58 1005.2
20260505193035 86 298 8.0 15.0 0.00 0.00 0.00 58 1005.2
20260505192507 86 241 9.0 15.0 0.00 0.00 0.00 59 1005.2
20260505192010 85 223 10.0 18.0 0.00 0.00 0.00 60 1005.3
20260505191522 85 230 10.0 18.0 0.00 0.00 0.00 61 1005.0
20260505191014 85 259 8.0 15.0 0.00 0.00 0.00 64 1005.1
20260505190507 85 234 8.0 16.0 0.00 0.00 0.00 63 1005.2
20260505190032 85 221 10.0 16.0 0.00 0.00 0.00 63 1005.1
20260505185513 85 224 6.0 13.0 0.00 0.00 0.00 66 1005.1
20260505185006 84 211 7.0 14.0 0.00 0.00 0.00 65 1005.1
20260505184525 84 216 9.0 14.0 0.00 0.00 0.00 64 1005.0
20260505184010 84 223 8.0 14.0 0.00 0.00 0.00 65 1005.2
20260505183511 83 199 6.0 16.0 0.00 0.00 0.00 67 1005.1
20260505183031 82 234 9.0 16.0 0.00 0.00 0.00 66 1005.3
20260505182505 82 238 9.0 14.0 0.00 0.00 0.00 66 1005.3
20260505182010 82 211 9.0 16.0 0.00 0.00 0.00 69 1005.4
20260505181517 82 210 9.0 16.0 0.00 0.00 0.00 68 1005.4
20260505181011 82 221 11.0 15.0 0.00 0.00 0.00 66 1005.4
20260505180511 82 202 10.0 21.0 0.00 0.00 0.00 67 1005.4
20260505180033 81 217 10.0 21.0 0.00 0.00 0.00 68 1005.4
20260505175507 82 192 11.0 17.0 0.00 0.00 0.00 67 1005.4
20260505175013 82 203 7.0 16.0 0.00 0.00 0.00 68 1005.5
20260505174531 82 199 9.0 21.0 0.00 0.00 0.00 69 1005.4
20260505174007 82 260 11.0 21.0 0.00 0.00 0.00 67 1005.3
20260505173509 82 201 10.0 19.0 0.00 0.00 0.00 68 1005.3
20260505173037 82 190 11.0 19.0 0.00 0.00 0.00 67 1005.2
20260505172511 81 227 10.0 19.0 0.00 0.00 0.00 69 1005.4
20260505172021 81 207 11.0 19.0 0.00 0.00 0.00 69 1005.2
20260505171527 81 198 12.0 17.0 0.00 0.00 0.00 69 1005.2
20260505171010 80 199 12.0 20.0 0.00 0.00 0.00 70 1005.3
20260505170514 80 220 11.0 21.0 0.00 0.00 0.00 70 1005.3
20260505170021 80 208 14.0 19.0 0.00 0.00 0.00 69 1005.2
20260505165506 80 209 10.0 20.0 0.00 0.00 0.00 71 1005.4
20260505165010 80 234 13.0 20.0 0.00 0.00 0.00 71 1005.3
20260505164530 79 214 11.0 16.0 0.00 0.00 0.00 74 1005.4
20260505164010 79 212 11.0 15.0 0.00 0.00 0.00 73 1005.4
20260505163510 78 221 10.0 17.0 0.00 0.00 0.00 74 1005.4
20260505163027 78 192 11.0 17.0 0.00 0.00 0.00 73 1005.4
20260505162509 78 215 11.0 17.0 0.00 0.00 0.00 74 1005.4
20260505162016 78 167 13.0 19.0 0.00 0.00 0.00 74 1005.3
20260505161528 78 234 13.0 21.0 0.00 0.00 0.00 74 1005.2
20260505161011 78 171 14.0 21.0 0.00 0.00 0.00 72 1005.2
20260505160506 79 231 9.0 14.0 0.00 0.00 0.00 74 1005.1
20260505153029 75 178 8.0 15.0 0.00 0.00 0.00 79 1005.0
20260505152510 75 227 7.0 18.0 0.00 0.00 0.00 79 1005.1
20260505152018 75 243 12.0 20.0 0.00 0.00 0.00 78 1005.0
20260505151521 75 191 8.0 20.0 0.00 0.00 0.00 79 1004.9
20260505151008 75 223 11.0 20.0 0.00 0.00 0.00 77 1004.9
20260505150517 75 210 11.0 18.0 0.00 0.00 0.00 78 1004.9